Home > Weather > Oss > Past weeks

Flag for Netherlands Past Weather in Oss, Netherlands — Yesterday and Last 2 Weeks

Now
79 °F

Passing clouds.


Feels Like: 81 °F
Forecast: 64 / 79 °F
Wind: 3 mph from North

Location: Volkel

Current Time: Jul 23, 2016 at 7:06:05 PM

Latest Report: Jul 23, 2016 at 6:25 PM


Visibility: N/A

Pressure: 30.07 "Hg

Humidity: 61%

Dew Point: 64 °F

Location of OssLocation

Past Weather in Oss — Graph

°F

Oss Temperature Yesterday

Maximum temperature yesterday: 79 °F (at 5:25 PM)
Minimum temperature yesterday: 64 °F (at 7:55 AM)
Average temperature yesterday: 70 °F

High & Low Weather Summary for the Past Weeks

 TemperatureHumidityPressure
High95 °F (Jul 20, 4:55 PM)100% (Jul 9, 5:25 AM)30.27 "Hg (Jul 9, 5:25 AM)
Low46 °F (Jul 14, 5:25 AM)30% (Jul 20, 4:55 PM)29.74 "Hg (Jul 10, 5:55 PM)
Average67 °F75%30.03 "Hg
* Reported Jul 8 5:25 PM — Jul 23 5:55 PM, Oss, Weather by CustomWeather, © 2016

Note: Actual official high and low records may vary slightly from our data, if they occured in-between our weather recording intervals... More about our weather records

Advertising

Oss Weather History for the Previous 24 Hours

Scroll right to see more
 ConditionsComfort  
Time TempWeatherWind HumidityBarometerVisibility
5:55 PM
Sat, Jul 23
79 °FThunderstorms. Passing clouds.3 mph61%30.07 "HgN/A
5:25 PM79 °FThunderstorms. Passing clouds.5 mph61%30.07 "HgN/A
4:55 PM79 °FPassing clouds.7 mph61%30.07 "HgN/A
4:25 PM77 °FScattered clouds.7 mph65%30.07 "HgN/A
3:55 PM77 °FScattered clouds.6 mph69%30.07 "HgN/A
3:25 PM77 °FWarm.6 mph69%30.07 "HgN/A
2:55 PM77 °FScattered clouds.6 mph69%30.07 "HgN/A
2:25 PM77 °FPassing clouds.6 mph69%30.07 "HgN/A
1:55 PM75 °FPartly sunny.7 mph74%30.07 "Hg6 mi
1:25 PM75 °FPartly sunny.5 mph74%30.07 "HgN/A
12:55 PM75 °FOvercast.6 mph74%30.07 "HgN/A
12:25 PM73 °FBroken clouds.7 mph74%30.07 "HgN/A
11:55 AM73 °FPartly sunny.5 mph78%30.07 "HgN/A
11:25 AM72 °FFog.7 mph78%30.07 "Hg6 mi
10:55 AM70 °FFog.7 mph83%30.07 "Hg4 mi
10:25 AM68 °FFog.5 mph88%30.07 "Hg4 mi
9:55 AM66 °FFog.6 mph94%30.07 "Hg2 mi
9:25 AM66 °FFog.5 mph94%30.07 "Hg2 mi
8:55 AM66 °FFog.6 mph94%30.07 "Hg2 mi
8:25 AM66 °FFog.8 mph94%30.07 "Hg2 mi
7:55 AM66 °FFog.6 mph94%30.07 "Hg2 mi
7:25 AM66 °FFog.5 mph94%30.04 "Hg2 mi
6:55 AM64 °FFog.6 mph100%30.04 "Hg2 mi
6:25 AM66 °FFog.7 mph94%30.04 "Hg2 mi
5:55 AM64 °FFog.6 mph100%30.04 "Hg2 mi
5:25 AM64 °FFog.5 mph100%30.04 "Hg3 mi
4:55 AM66 °FFog.5 mph94%30.04 "Hg3 mi
4:25 AM66 °FFog.5 mph94%30.04 "Hg4 mi
3:55 AM66 °FFog.3 mph94%30.04 "Hg5 mi
2:55 AM66 °FMild.5 mph94%30.04 "HgN/A
2:25 AM66 °FPassing clouds.5 mph94%30.04 "HgN/A
1:55 AM66 °FOvercast.2 mph88%30.04 "HgN/A
1:25 AM66 °FPassing clouds.3 mph94%30.04 "HgN/A
12:55 AM68 °FPassing clouds.3 mph88%30.04 "HgN/A
12:25 AM68 °FPassing clouds.5 mph88%30.04 "HgN/A
11:55 PM
Fri, Jul 22
68 °FPartly cloudy.5 mph88%30.04 "HgN/A
11:25 PM70 °FOvercast.3 mph83%30.04 "HgN/A
10:55 PM68 °FPassing clouds.3 mph83%30.04 "HgN/A
10:25 PM70 °FBroken clouds.2 mph78%30.04 "HgN/A
9:55 PM70 °FOvercast.3 mph78%30.04 "HgN/A
9:25 PM72 °FOvercast.6 mph78%30.04 "HgN/A
8:55 PM73 °FScattered clouds.5 mph74%30.01 "HgN/A
8:25 PM73 °FMild.6 mph69%30.01 "HgN/A
7:55 PM75 °FBroken clouds.7 mph69%30.01 "HgN/A
7:25 PM75 °FScattered clouds.5 mph69%30.01 "HgN/A
Weather by CustomWeather, © 2016

See weather overviewHow to use our weather pages